Tracking 18840 objects as of 18-November-2017
HD Live streaming from Space Station
objects crossing your sky now

FENGYUN 1C DEB

Track FENGYUN 1C DEB now!
10-day predictions


NORAD ID: 30860
Int'l Code: 1999-025AWW
Perigee: 825.7 km
Apogee: 892.5 km
Inclination: 99.1 °
Period: 102.0 minutes
Semi major axis: 7230 km
RCS: 0.0064 m2 (small)
Launch date: May 10, 1999
Source: People's Republic of China (PRC)
Launch site: Taiyaun Space Center, China (TSC)

Note: This is SATELLITE DEBRIS
aabbcc
Your satellite tracking list
Your tracking list is empty




NASA's NSSDC Master Catalog

Two Line Element Set (TLE):
1 30860U 99025AWW 17322.47046920  .00000660  00000-0  38068-3 0  9999
2 30860  99.0817 323.0247 0046200 263.2158  96.3754 14.12173999548673
Source of the keplerian elements: AFSPC